SCP
0 0 0 0 0 0 0 0 0 0 0 0 0 0 0 0 0 0 0 0 0 0 0 0 0 0 0 1 1 1 1 1 0 0 0 0 0 0
0 0 0 0 0 0 0 0 0 0 0 0 0 0 0 0 0 0 0 0 0 0 0 0 0 0 0 1 1 1 1 1 0 0 0 0 0 0
0 0 0 0 0 0 0 0 0 0 0 0 0 0 0 0 0 0 0 0 0 0 0 0 0 0 0 0 0 0 0 0 0 0 0 0 0 0
0 0 0 0 0 0 0 0 0 0 0 0 0 0 0 0 0 0 0 0 0 0 0 0 0 0 0 0 0 0 0 0 0 0 0 0 0 0
0 0 0 0 0 0 0 0 0 0 0 0 0 0 0 0 0 0 0 0 0 0 0 0 0 0 0 0 0 0 0 0 0 0 0 0 0 0
0 0 0 0 0 0 0 0 0 0 0 0 0 0 0 0 0 0 0 0 0 0 0 0 0 0 0 0 0 0 0 0 0 0 0 0 0 0
0 0 0 0 0 0 0 0 0 0 0 0 0 0 0 0 0 0 0 0 0 0 0 0 0 0 0 0 0 0 0 0 0 0 0 0 0 0
0 0 0 0 0 0 0 0 0 0 0 0 0 0 0 0 0 0 0 0 0 0 0 0 0 0 0 0 0 0 0 0 0 0 0 0 0 0
0 0 0 0 0 0 0 0 0 0 0 0 0 0 0 0 0 0 0 0 0 0 0 0 0 0 0 0 0 0 0 0 0 0 0 0 0 0
0 0 0 0 0 0 0 0 0 0 0 0 0 0 0 0 0 0 0 0 0 0 0 0 0 0 0 0 0 0 0 0 0 0 0 0 0 0
0 0 0 0 0 0 0 0 0 0 0 0 0 0 0 0 0 0 0 0 0 0 0 0 0 0 0 0 0 0 0 0 0 0 0 0 0 0
0 0 0 0 0 0 0 0 0 0 0 0 0 0 0 0 0 0 0 0 0 0 0 0 0 0 0 0 0 0 0 0 0 0 0 0 0 0
0 0 0 0 0 0 0 0 0 0 0 0 0 0 0 0 0 0 0 0 0 0 0 0 0 0 0 0 0 0 0 0 0 0 0 0 0 0
0 0 0 0 0 0 0 0 0 0 0 0 0 0 0 0 0 0 0 0 0 0 0 0 0 0 0 0 0 0 0 0 0 0 0 0 0 0
0 0 0 0 0 0 0 0 0 0 0 0 0 0 0 0 0 0 0 0 0 0 0 0 0 0 0 0 0 0 0 0 0 0 0 0 0 0
0 0 0 0 0 0 0 0 0 0 0 0 0 0 0 0 0 0 0 0 0 0 0 0 0 0 0 0 0 0 0 0 0 0 0 0 0 0
0 0 0 0 0 0 0 0 0 0 0 0 0 0 0 0 0 0 0 0 0 0 0 0 0 0 0 0 0 0 0 0 0 0 0 0 0 0
0 0 0 0 0 0 0 0 0 0 0 0 0 0 0 0 0 0 0 0 0 0 0 0 0 0 0 0 0 0 0 0 0 0 0 0 0 0
0 0 0 0 0 0 0 0 0 0 0 0 0 0 0 0 0 0 0 0 0 0 0 0 0 0 0 0 0 0 0 0 0 0 0 0 0 0
0 0 0 0 0 0 0 0 0 0 0 0 0 0 0 0 0 0 0 0 0 0 0 0 0 0 0 0 0 0 0 0 0 0 0 0 0 0
0 0 0 0 0 0 0 0 0 0 0 0 0 0 0 0 0 0 0 0 0 0 0 0 0 0 0 0 0 0 0 0 0 0 0 0 0 0
0 0 0 0 0 0 0 0 0 0 0 0 0 0 0 0 0 0 0 0 0 0 0 0 0 0 0 0 0 0 0 0 0 0 0 0 0 0
0 0 0 0 0 0 0 0 0 0 0 0 0 0 0 0 0 0 0 0 0 0 0 0 0 0 0 0 0 0 0 0 0 0 0 0 0 0
Wind_Speed
3 4 3 3 3 3 3 4 4 3 3 3 2 2 2 3 6 6 6 12 13 13 12 12 11 10 10 9 8 7 6 6 6 7 7 7 7 8
3 4 3 2 3 3 3 3 3 4 3 3 3 2 1 2 5 5 6 11 13 13 12 12 12 12 12 11 10 9 8 8 8 8 8 8 8 8
3 4 4 3 3 2 2 2 3 3 3 3 2 2 1 2 2 2 4 4 5 12 13 13 13 13 13 13 12 11 10 10 10 10 10 9 9 9
4 4 4 3 3 2 2 3 2 3 3 3 2 1 2 2 2 2 2 4 4 8 12 14 14 14 13 13 12 12 11 11 11 11 11 10 10 10
3 3 4 4 3 2 2 2 2 2 2 2 1 1 1 1 0 1 1 1 3 4 7 10 12 13 13 13 12 12 11 11 11 11 11 11 11 11
2 3 4 5 5 4 3 2 2 2 1 1 0 1 1 1 0 1 2 1 2 2 2 3 6 10 11 12 11 11 12 12 11 11 11 11 11 12
1 2 3 5 7 5 4 3 3 2 1 1 1 1 1 1 1 1 1 2 2 1 1 1 1 2 3 7 10 11 11 12 12 12 12 12 12 13
2 2 2 3 5 5 6 6 5 3 2 2 1 0 1 1 1 1 1 1 2 2 1 1 0 1 1 2 4 6 8 10 10 11 11 11 12 12
2 2 2 2 3 2 3 3 3 3 4 3 2 1 1 1 0 1 1 0 1 2 2 2 2 1 1 1 0 1 3 4 4 5 7 8 9 10
2 3 3 3 2 3 3 2 1 0 1 2 2 2 1 1 1 1 0 1 1 2 2 2 2 2 2 2 4 4 4 4 4 4 5 5 6 7
3 3 3 3 3 5 5 4 3 2 2 3 3 2 2 2 2 2 2 2 2 2 2 2 2 2 2 2 3 5 5 5 5 6 6 6 6 5
4 4 5 4 3 6 5 5 5 2 2 3 3 3 3 4 4 2 2 2 1 2 2 2 2 2 3 2 3 3 3 5 6 7 7 7 6 3
3 2 2 4 5 5 5 4 4 4 3 3 3 3 3 3 3 3 2 2 2 1 1 1 2 2 2 2 3 3 3 3 4 5 7 8 7 4
2 2 2 5 7 7 4 5 7 7 4 4 3 3 2 2 2 3 4 3 3 2 2 2 2 1 1 2 2 3 3 4 4 4 4 7 7 8
3 5 7 8 8 6 8 8 6 4 4 4 3 2 2 2 2 3 4 5 6 6 5 4 2 1 2 2 2 3 3 3 5 4 5 6 6 6
5 7 9 10 8 8 7 6 5 4 4 4 3 2 3 3 4 3 3 3 4 5 6 7 5 4 3 4 3 3 4 3 4 4 4 5 6 6
4 5 6 6 6 6 6 6 5 5 5 4 4 4 4 4 4 3 3 4 4 3 4 5 5 6 7 4 4 4 3 3 4 4 3 4 5 6
8 6 6 6 6 5 5 5 5 5 4 4 4 4 4 4 4 4 4 4 4 3 3 3 3 3 4 6 8 3 3 3 4 4 4 3 3 4
8 7 6 6 5 5 5 5 4 4 4 4 4 4 4 4 4 4 3 3 3 3 3 3 3 3 3 2 4 8 4 3 3 4 4 3 2 2
6 6 5 5 4 4 4 4 4 4 4 4 4 4 4 3 4 3 3 3 3 3 3 3 3 2 2 1 2 3 7 4 3 3 4 3 2 3
4 4 4 4 4 4 4 4 4 4 4 4 4 4 3 3 3 3 3 4 3 2 3 3 3 2 1 3 3 3 4 5 5 2 3 3 3 4
3 3 3 4 4 3 3 3 4 4 4 3 3 3 3 3 3 3 3 3 2 2 2 2 3 4 4 4 3 2 3 4 5 7 6 3 1 2
2 2 2 3 3 3 3 3 4 3 3 3 3 3 3 3 3 3 3 2 2 2 2 3 3 4 3 3 3 2 3 4 4 4 5 8 7 4
Wind_Direction
192 187 184 193 182 179 169 165 167 201 259 269 269 264 226 203 204 197 203 212 212 213 212 213 214 217 222 227 233 236 236 240 243 249 259 270 277 283
187 179 186 192 186 175 173 176 173 175 220 257 254 265 248 211 201 197 211 218 219 219 221 221 220 220 222 223 225 225 225 228 236 242 251 260 268 274
193 187 196 185 176 180 169 171 178 172 210 260 263 264 243 234 195 200 214 219 224 227 228 229 228 227 226 225 225 225 226 229 237 243 250 256 262 266
196 187 197 183 179 179 170 182 185 185 191 236 274 275 254 241 215 222 222 219 220 231 232 233 233 231 230 229 228 228 228 230 235 242 249 256 260 264
194 184 185 166 175 171 171 174 178 172 175 196 264 289 282 291 291 281 264 259 247 246 240 240 238 235 231 230 230 231 232 234 236 240 246 254 261 265
209 186 176 171 172 165 158 157 144 128 134 151 261 313 306 316 45 278 292 276 270 276 268 250 241 238 236 234 234 235 237 239 240 241 244 248 254 259
104 150 180 181 171 163 153 153 135 120 107 95 58 14 349 347 297 268 266 292 291 280 276 263 238 235 235 239 240 241 241 242 241 241 243 245 248 253
109 124 158 171 170 157 150 152 148 141 140 131 122 107 306 299 306 308 300 355 323 337 328 313 307 267 256 233 247 250 254 252 248 245 246 248 249 252
134 130 133 134 129 130 147 149 154 154 152 151 154 193 211 263 271 20 13 17 322 332 350 351 359 351 353 30 357 281 283 283 277 270 267 264 261 259
95 133 138 132 144 160 151 142 139 28 180 153 160 181 180 172 147 149 134 60 13 353 11 29 359 359 359 8 15 25 17 0 345 331 317 306 294 283
56 81 111 122 145 152 141 133 109 61 77 133 146 140 119 103 99 72 50 60 35 353 4 47 0 350 355 2 8 19 21 17 9 3 358 349 338 324
44 46 62 80 107 137 140 139 139 141 111 92 74 59 51 44 53 69 94 86 74 13 350 39 11 13 14 354 2 6 11 14 16 14 10 6 1 354
57 36 25 59 88 111 122 135 151 141 120 109 91 66 47 38 32 32 52 101 102 49 328 69 37 26 37 347 351 4 13 5 1 3 7 7 10 12
58 27 31 70 79 82 89 109 117 113 105 98 86 70 55 38 25 31 43 55 67 73 31 65 75 43 44 28 355 349 9 12 9 4 6 11 18 22
53 65 75 74 70 66 73 86 91 95 100 99 95 77 54 41 37 39 38 52 52 44 37 32 53 60 71 68 21 355 358 3 8 11 19 30 26 20
51 59 65 65 62 58 58 59 62 77 94 95 89 67 52 48 41 41 46 42 48 21 17 28 35 63 74 60 62 34 19 12 355 359 24 42 40 35
59 57 54 52 54 52 52 51 51 56 62 61 71 69 60 56 42 36 51 56 61 35 13 10 27 55 63 58 54 34 22 15 360 356 23 49 49 36
67 62 58 55 57 55 56 53 50 51 54 64 66 68 69 67 57 45 52 65 67 45 24 1 9 36 48 51 38 36 21 10 355 4 22 44 50 28
66 62 59 57 55 54 55 58 53 44 51 60 64 63 67 67 65 57 55 60 59 46 21 11 23 58 73 59 27 28 30 7 3 10 15 25 33 3
57 60 57 53 53 56 55 55 51 45 47 52 56 58 64 73 71 63 59 67 64 47 27 18 24 38 88 105 72 17 19 28 20 12 359 359 358 339
52 52 49 49 50 53 54 54 54 51 48 50 50 55 64 77 78 72 71 67 66 56 41 4 330 350 95 72 65 19 358 20 43 34 3 10 359 352
59 56 48 49 49 51 54 56 55 50 45 49 50 56 64 78 89 86 80 73 57 54 39 3 5 39 59 78 81 35 359 356 10 27 36 41 34 353
81 72 61 53 50 54 64 68 66 53 44 47 55 61 75 82 85 85 80 68 59 55 53 42 35 48 58 74 80 52 26 9 359 5 354 359 11 357